User: anonymous   Login
Location: Little Elm
(33.1626°N, 96.9375°W)
Time: 05:25:16
(UTC+00:00)
Language:

Meteor 2-15 Rocket - Orbit

View from above orbital plane
View from above orbital plane
View from above satellite
View from above satellite

Ground track
Ground track

The orbit data is extracted from the following two-line orbital elements,

1 17291U 87001B   22139.49734955  .00000084  00000-0  61440-4 0  9990
2 17291  82.4700 217.3912 0012149  49.9419 310.2805 13.84594147787389
Epoch (UTC): 19 May 2022 11:56:11
Eccentricity: 0.0012149
inclination: 82.4700°
perigee height: 939 km
apogee height: 956 km
right ascension of ascending node: 217.3912°
argument of perigee: 49.9419°
revolutions per day: 13.84594147
mean anomaly at epoch: 310.2805°
orbit number at epoch: 78738

The dashed part of the orbit path shows where the satellite is in the earth's shadow,  

DLR